This demonstration page uses our WeatherBlox Daily Observations layout. Learn more.

39.92423, -83.80882

Hourly Observations for October 21, 2020

Temp ( °F °C ) Dew Point ( °F °C ) Humidity (%) Winds ( mph kmh ) Pressure ( in mb ) Visibility ( mi km ) Precip ( " mm )
12:13 am 00:13 Cloudy with Mist and Fog 55 13 55 13 100 100 SSE 6 9 30.11 1020 3 4.82802 0 0
12:56 am 00:56 Partly Cloudy with Mist and Fog 57 13.9 57 13.9 100 100 SSE 7 11 30.09 1019 5 8.0467 0.01 0.254
1:56 am 01:56 Clear 61 16.1 61 16.1 100 100 SSW 5 7 30.09 1019 10 16.0934 0 0
4:56 am 04:56 Partly Cloudy 62 16.7 62 16.7 100 100 SSW 7 11 30.08 1018 10 16.09 0 0.00030000001424924
5:56 am 05:56 Partly Cloudy 63 17.2 63 17.2 100 100 SSW 11 18 30.09 1019 10 16.09 0 0
7:56 am 07:56 Mostly Cloudy 63 17.2 62 16.7 97 97 SSW 8 13 30.12 1020 10 16.0934 0.01 0.254
8:56 am 08:56 Mostly Cloudy 64 17.8 63 17.2 96 96 SSW 8 13 30.14 1021 10 16.0934 0 0
9:40 am 09:40 Mostly Cloudy 64 18 63 17 94 94 SW 9 15 30.14 1021 10 16.0934 0.01 0.254
9:56 am 09:56 Cloudy 65 18.3 63 17.2 93 93 SSW 9 15 30.16 1021 10 16.0934 0.01 0.254
10:07 am 10:07 Cloudy 64 18 63 17 94 94 SSW 13 20 30.14 1021 10 16.0934 0 0
10:56 am 10:56 Cloudy 65 18.3 63 17.2 93 93 SSW 10 17 30.16 1021 10 16.0934 0 0
11:56 am 11:56 Cloudy 66 18.9 64 17.8 93 93 SW 8 13 30.19 1022 10 16.0934 0 0
12:16 pm 12:16 Cloudy with Light Rain 64 18 64 18 100 100 WSW 8 13 30.18 1022 3 4.82802 0.001 0.001
12:56 pm 12:56 Cloudy with Mist and Fog 64 17.8 64 17.8 100 100 W 8 13 30.21 1023 4 6.43736 0.001 0.001
1:03 pm 13:03 Cloudy with Mist and Fog 64 18 64 18 100 100 W 7 11 30.19 1022 3 4.82802 0 0
1:10 pm 13:10 Cloudy with Light Rain 64 18 64 18 100 100 W 7 11 30.19 1022 2 3.21868 0.001 0.001
1:22 pm 13:22 Cloudy with Light Rain 64 18 64 18 100 100 W 6 9 30.19 1022 3 4.82802 0.01 0.254
1:40 pm 13:40 Cloudy with Light Rain 64 18 64 18 100 100 WNW 8 13 30.19 1022 1.75 2.816345 0.01 0.254
1:56 pm 13:56 Cloudy with Light Rain 62 16.7 62 16.7 100 100 NW 13 20 30.21 1023 2 3.21868 0.01 0.254
2:10 pm 14:10 Cloudy with Light Rain 61 16 61 16 100 100 NW 8 13 30.2 1023 3 4.82802 0.001 0.001
2:18 pm 14:18 Cloudy with Light Rain 61 16 61 16 100 100 NW 7 11 30.21 1023 2 3.21868 0.001 0.001
2:56 pm 14:56 Cloudy with Mist and Fog 61 16.1 61 16.1 100 100 NNW 6 9 30.21 1023 2.5 4.02335 0.001 0.001
3:07 pm 15:07 Cloudy with Mist and Fog 61 16 61 16 100 100 NNW 6 9 30.2 1023 5 8.0467 0 0
3:25 pm 15:25 Cloudy 61 16 61 16 100 100 NNW 6 9 30.2 1023 8 12.87472 0 0
3:56 pm 15:56 Cloudy 61 16.1 61 16.1 100 100 N 3 6 30.2 1023 10 16.0934 0 0
4:56 pm 16:56 Cloudy 62 16.7 62 16.7 100 100 Calm 30.2 1023 10 16.0934 0 0
5:43 pm 17:43 Cloudy 63 17 63 17 100 100 Calm 30.18 1022 10 16.0934 0 0
5:56 pm 17:56 Cloudy 62 16.7 62 16.7 100 100 N 3 6 30.2 1023 10 16.0934 0 0
6:04 pm 18:04 Cloudy 63 17 63 17 100 100 N 5 7 30.18 1022 10 16.0934 0 0
6:34 pm 18:34 Cloudy 61 16 61 16 100 100 NE 3 6 30.2 1023 10 16.0934 0.01 0.254
6:56 pm 18:56 Cloudy 61 16.1 61 16.1 100 100 ENE 5 7 30.21 1023 10 16.0934 0.01 0.254
7:03 pm 19:03 Cloudy 61 16 61 16 100 100 E 3 6 30.2 1023 10 16.0934 0 0
7:56 pm 19:56 Cloudy 60 15.6 60 15.6 100 100 NE 5 7 30.21 1023 7 11.26538 0 0
8:11 pm 20:11 Cloudy 61 16 61 16 100 100 NNE 5 7 30.21 1023 8 12.87472 0 0
8:33 pm 20:33 Cloudy 61 16 61 16 100 100 NE 5 7 30.2 1023 8 12.87472 0 0
8:56 pm 20:56 Cloudy 60 15.6 60 15.6 100 100 E 5 7 30.21 1023 7 11.26538 0 0
9:56 pm 21:56 Cloudy 60 15.6 60 15.6 100 100 ESE 6 9 30.2 1023 10 16.0934 0.01 0.254
10:56 pm 22:56 Mostly Cloudy 59 15 59 15 100 100 SE 6 9 30.21 1023 8 12.87472 0 0
11:56 pm 23:56 Clear with Mist and Fog 57 13.9 57 13.9 100 100 SE 6 9 30.19 1023 6 9.65604 0 0

Powered by AerisWeather